Regional Weather Roundup
Issued by NWS Boston, MA

Home | Current Version | Previous Version | Text Only | Print | Product List | Glossary On
Versions: 1 2 3 4 5 6 7 8 9 10 11 12 13 14 15 16 17 18 19 20 21 22 23 24 25 26 27 28 29 30 31 32 33 34 35 36 37 38 39 40 41 42 43 44 45 46 47 48 49 50
000
ASUS41 KBOX 161310
RWRBOX

REGIONAL WEATHER ROUNDUP
NATIONAL WEATHER SERVICE TAUNTON MA
800 AM EST TUE JAN 16 2018

NOTE:  "FAIR" INDICATES FEW OR NO CLOUDS BELOW 12,000 FEET WITH NO
SIGNIFICANT WEATHER AND/OR OBSTRUCTIONS TO VISIBILITY.

MAZALL-161400-
EASTERN MASSACHUSETTS

CITY           SKY/WX    TMP DP  RH WIND       PRES   REMARKS
BOSTON         FAIR      22  16  78 NE6       30.52F WCI  14
BEVERLY        FAIR      19  14  81 CALM      30.51F
LAWRENCE       FAIR      20  13  74 CALM      30.52F
BEDFORD        FAIR      20  12  71 CALM      30.50F
BLUE HILL        N/A     20  15  81 E8        30.45F WCI  10
NORWOOD        FAIR      24  15  68 SE3       30.51F
MARSHFIELD     MOCLDY    23  21  93 CALM      30.53F
PLYMOUTH       CLOUDY    24  20  84 CALM      30.53R
TAUNTON        FAIR      22  17  81 SE5       30.51F WCI  16
NEW BEDFORD    FAIR      23  19  85 CALM      30.52S
$$

MAZALL-161400-
CAPE COD AND THE ISLANDS

CITY           SKY/WX    TMP DP  RH WIND       PRES   REMARKS
FALMOUTH       FAIR      23  21  93 MISG      30.53
HYANNIS        CLOUDY    30  27  88 NW8       30.51R WCI  22
CHATHAM        CLOUDY    30  27  88 CALM      30.52R
PROVINCETOWN   CLOUDY    30  25  81 NW9       30.54R WCI  22
NANTUCKET      FAIR      30  27  88 N8        30.51R WCI  22
MARTHAS VNYRD  FAIR      25  24  96 N7        30.52R WCI  17
$$

MAZALL-161400-
CENTRAL AND WESTERN MASSACHUSETTS

CITY           SKY/WX    TMP DP  RH WIND       PRES   REMARKS
WORCESTER      FAIR      18   7  62 CALM      30.44S
FITCHBURG      CLOUDY    21  10  62 CALM      30.50S
ORANGE         CLOUDY   N/A N/A N/A CALM      30.49R
SPRINGFIELD    MOCLDY    20  10  67 CALM      30.49
WESTFIELD      CLOUDY    19  12  74 CALM      30.50R
NORTH ADAMS    CLOUDY    20  16  84 SE3       30.44S
PITTSFIELD     LGT SNOW  19  14  81 CALM      30.40S
$$

RIZALL-161400-
RHODE ISLAND

CITY           SKY/WX    TMP DP  RH WIND       PRES   REMARKS
PROVIDENCE     MOCLDY    22  15  75 NE3       30.52S
NEWPORT        FAIR      23  19  85 E8        30.50F WCI  14
BLOCK ISLAND   FAIR      30  26  85 E7        30.52R WCI  23
SMITHFIELD     FAIR     N/A N/A N/A E3        30.48F
WESTERLY       FAIR      21  17  84 E3        30.51F
$$

CTZALL-161400-
CONNECTICUT

CITY           SKY/WX    TMP DP  RH WIND       PRES   REMARKS
BRADLEY INTL   CLOUDY    21  10  62 CALM      30.52R
HARTFORD       CLOUDY   N/A N/A N/A CALM      30.53R
BRIDGEPORT     CLOUDY    24  13  62 N3        30.54R
DANBURY        LGT SNOW  23  16  74 CALM      30.51S
GROTON         FAIR      21  15  78 NW3       30.52S
NEW HAVEN      CLOUDY    23  12  62 N6        30.53R WCI  16
CHESTER        CLOUDY    21  14  73 CALM      30.50R
MERIDEN        CLOUDY    21  11  65 CALM      30.53R
WILLIMANTIC    MOCLDY    22  15  75 CALM      30.51S
OXFORD         FLURRIES  19  13  77 CALM      30.48S
$$

MEZ002-015-021-024-NHZ003-005-008-011-012-014-VTZ005-008-161400-
NORTHERN NEW ENGLAND

CITY           SKY/WX    TMP DP  RH WIND       PRES   REMARKS
PORTLAND ME    FAIR      15   9  76 VRB7      30.53S WCI   5
BANGOR ME      MOCLDY    12   7  80 N6        30.51S WCI   3
CONCORD NH     CLOUDY    16  10  77 CALM      30.50S
MANCHESTER NH  FAIR      17   9  70 CALM      30.49F
NASHUA NH      FAIR      16  11  80 CALM      30.51F
PORTSMOUTH NH  PTCLDY    17  10  76 N3        30.51F
JAFFREY NH     CLOUDY    17  12  80 CALM      30.43R
KEENE NH       LGT SNOW  17  11  77 CALM      30.49R
BURLINGTON VT  LGT SNOW  18  13  80 S5        30.43S WCI  11
MT. WASHINGTON SNOWSHWR   5   5 100 W40         N/A  VSB 1/8 WCI -22
$$

NYZ052-076-161400-
EASTERN NEW YORK

CITY           SKY/WX    TMP DP  RH WIND       PRES   REMARKS
ALBANY         CLOUDY    18  12  77 CALM      30.48R
NEW YORK CITY  CLOUDY    27  22  81 NE8       30.51S WCI  19
$$

ANZALL-161400-
MARINE OBSERVATIONS

STATION/POSITION TIME  TEMP    WIND        PRES    VSBY  WAVE
                       AIR SEA DIR/SP/G                  HT/PER
                 (UTC) (F)     (DEG/KT/KT) (MB)    (MI)  (FT/S)
BOSTON BUOY      1250   27 42  340/  6/  8 1033.3R         9/11
BUZZARDS BAY     1200   25      20/ 10/ 11 1033.8R
NANTUCKET SOUND  1250   31 36  350/ 12/ 16 1033.0R         2/ 3
MASS BAY-STELLWA 1204   26 40              1033.1R         9/11
ISLE OF SHOALS   1300   21      10/  4/  5 1033.5F
S OF BLOCK IS    1243      41                N/A           6/11
$$

......................KEY.........................
  SKY/WX - SKY CONDITION/PRESENT WEATHER
  TMP    - TEMPERATURE IN FAHRENHEIT
  DWPT   - DEWPOINT IN FAHRENHEIT
  RH     - RELATIVE HUMIDITY IN PERCENT
  WIND   - DIRECTION AND SPEED IN MPH
  PRES   - MEAN SEA LEVEL PRESSURE IN INCHES OF HG
  WCI    - WIND CHILL INDEX
  VSB    - VISIBILITY IN MILES
  HX     - HEAT INDEX
  TC     - TEMPERATURE IN CELSIUS
  VRB    - VARIABLE WIND DIRECTION
  N/A    - NOT AVAILABLE



USA.gov is the U.S. government's official web portal to all federal, state and local government web resources and services.